Location: Caltech
(34.1382°N, 118.1253°W)
Time: 08:29:40
(UTC-07:00)

HO-68 - Visible Passes

Search period start: 25 May 2015 00:00
Search period end: 04 June 2015 00:00
Orbit: 1193 x 1204 km, 100.2° (Epoch: 25 May)

Date Brightness Start Highest point End Pass type
(mag) Time Alt. Az. Time Alt. Az. Time Alt. Az.
25 May ? 21:53:58 10° SSW 22:00:16 31° W 22:06:26 10° NW visible
26 May ? 21:36:27 10° S 21:43:13 42° W 21:49:56 10° NNW visible
27 May ? 21:19:10 10° S 21:26:14 57° W 21:33:16 10° NNW visible
28 May ? 21:02:06 10° S 21:09:17 75° WSW 21:16:29 10° NNW visible
29 May ? 20:45:12 10° SSE 20:52:23 83° ENE 20:59:36 10° NNW visible
29 May ? 22:37:13 10° WSW 22:41:00 14° W 22:44:16 10° WNW visible
30 May ? 20:28:28 10° SSE 20:35:31 64° ENE 20:42:37 10° N visible
30 May ? 22:18:36 10° SW 22:23:49 20° W 22:28:40 10° NW visible
31 May ? 22:00:38 10° SSW 22:06:40 28° W 22:12:31 10° NW visible
01 Jun ? 21:43:00 10° SSW 21:49:36 37° W 21:56:06 10° NNW visible
02 Jun ? 21:25:38 10° S 21:32:35 50° W 21:39:30 10° NNW visible
03 Jun ? 21:08:28 10° S 21:15:37 67° WSW 21:22:46 10° NNW visible
